Track IRIDIUM 145 now! 10-day predictions IRIDIUM 145 is classified as:
1 43253U 18030E 22220.35685472 .00000165 00000-0 52032-4 0 9995 2 43253 86.4024 159.2229 0002433 103.1211 257.0256 14.34218790228192